Dewpoint
37 36 34 35 34 33 35 35 34 37 42 38 38 37 39 42 42 42 41 40 39 41 48 56 61 63 63 64 65 65 66 66 67 65 64 64 64 64 63 62 62 62 61 61
30 32 37 38 36 32 34 34 33 38 42 39 38 35 39 41 42 41 42 41 40 40 41 43 51 59 62 63 64 64 64 65 65 66 66 65 65 65 65 64 63 63 62 62
26 32 37 35 32 30 30 29 30 35 40 40 39 36 38 41 42 42 42 42 40 40 39 40 43 48 58 61 62 63 64 65 65 65 65 63 64 64 64 64 64 64 63 63
31 35 35 33 32 31 28 32 31 38 35 30 36 25 35 38 39 40 40 41 41 39 40 40 40 44 46 55 61 63 64 64 64 64 64 62 63 62 63 63 63 64 64 63
27 33 33 32 32 33 30 35 33 37 32 31 33 29 28 36 36 37 38 39 40 39 39 40 40 41 45 46 55 60 62 63 63 63 63 62 62 62 61 61 62 62 62 62
30 35 36 34 35 35 34 35 35 35 32 27 29 30 27 29 31 34 36 36 38 37 38 39 40 40 42 43 50 58 61 61 62 62 62 62 62 61 59 59 60 60 60 60
27 28 33 37 33 34 34 30 27 26 27 22 27 30 29 30 30 28 30 31 34 34 34 37 39 40 41 41 43 54 57 59 60 61 62 62 61 61 59 58 58 58 57 57
21 16 29 35 33 29 31 29 22 18 20 20 29 27 29 29 28 29 29 28 28 29 30 32 38 39 40 41 41 45 52 56 58 60 60 61 61 60 60 58 56 58 56 55
25 23 30 33 36 34 32 28 32 24 21 17 24 26 22 24 24 24 26 28 28 30 33 33 36 38 40 40 41 44 48 51 54 56 58 56 57 56 56 55 54 54 53 52
27 22 29 34 37 37 34 34 29 32 23 19 19 18 19 18 20 24 27 28 29 30 35 39 38 37 40 41 43 46 48 50 50 50 51 51 51 51 51 51 51 51 49 49
31 31 24 33 31 30 35 35 32 31 27 19 16 15 20 22 22 22 26 29 29 30 33 38 40 40 41 43 44 45 47 47 46 46 47 47 48 48 48 48 48 48 47 46
31 31 24 24 33 39 36 35 34 27 24 21 17 19 22 25 29 27 26 31 32 33 32 35 39 41 42 43 43 44 45 46 46 46 45 44 44 44 43 42 41 41 40 40
33 26 21 16 30 35 35 36 36 34 28 19 18 20 22 26 31 31 32 34 34 34 34 35 36 37 40 41 42 43 44 44 45 44 43 42 42 41 41 40 39 39 39 39
33 27 18 15 18 29 26 31 33 34 29 23 23 21 23 23 29 31 32 33 35 35 34 35 35 37 38 40 41 42 43 44 43 43 42 42 41 40 40 40 39 39 39 38
30 14 23 25 27 30 30 29 30 31 33 26 23 24 24 24 24 26 32 30 30 31 32 35 35 35 37 39 40 41 42 43 42 42 42 41 41 41 40 40 40 40 38 37
28 13 22 16 23 25 25 28 30 31 32 34 33 30 31 30 28 28 28 31 31 31 31 30 31 36 36 38 40 42 43 42 42 42 42 41 41 41 40 39 38 37 36 36
24 23 16 15 20 26 18 26 29 29 34 33 30 33 36 36 35 35 32 32 32 32 32 31 31 31 35 37 39 41 42 42 41 41 41 41 40 39 38 37 37 36 35 35
22 19 23 17 23 10 21 29 30 29 30 33 35 35 36 38 37 36 35 34 33 33 32 31 31 33 34 35 39 40 42 42 41 41 40 40 40 38 37 36 36 35 34 34
23 21 16 18 18 19 24 29 25 32 32 32 31 32 34 34 34 33 34 34 33 33 34 35 37 37 37 36 36 40 40 40 40 40 40 40 39 38 36 36 35 33 33 32
27 26 19 17 16 15 24 32 33 30 27 33 34 34 35 32 31 33 33 35 35 36 37 37 37 37 37 37 37 39 39 39 40 40 40 39 39 38 37 35 34 35 35 34
20 21 17 16 14 18 27 34 33 23 22 34 35 36 36 35 32 34 36 36 37 36 36 38 37 38 39 39 39 39 38 39 40 40 39 39 38 37 36 34 36 35 35 35
20 20 20 20 18 13 32 31 25 30 33 34 35 36 37 37 37 34 35 36 36 36 37 38 37 37 38 39 40 39 38 39 40 40 39 39 38 37 36 36 35 35 34 33
21 23 21 22 21 27 35 31 32 34 34 34 35 36 37 37 36 37 36 35 35 36 37 37 36 36 36 37 39 38 38 39 39 38 38 37 37 36 36 36 34 33 32 32
19 26 27 26 26 27 29 34 33 29 32 35 37 36 37 37 37 38 35 35 36 35 36 36 36 36 36 36 36 36 37 38 38 38 37 36 35 34 35 34 34 33 32 32
20 23 22 22 22 27 30 26 27 29 29 30 35 36 37 37 37 38 36 35 35 35 36 36 36 35 35 35 35 36 37 38 37 37 37 36 36 35 35 34 34 33 34 35
22 21 20 18 21 22 24 25 30 31 30 29 32 35 36 38 38 38 38 36 35 35 35 35 35 35 35 35 35 35 37 38 37 36 36 36 36 35 35 34 35 37 37 37
Lifted_Index
5 4 3 2 2 2 2 3 3 4 3 2 0 -0 -0 0 1 1 1 1 1 0 -1 -2 -3 -3 -3 -3 -3 -3 -3 -2 -2 -2 -2 -2 -2 -3 -4 -4 -4 -3 -3 -3
5 5 4 3 3 3 3 3 3 3 3 2 1 0 0 0 1 1 1 1 1 1 0 -1 -2 -3 -3 -3 -3 -3 -3 -3 -3 -2 -2 -2 -2 -3 -4 -4 -4 -4 -3 -3
5 5 5 5 4 4 4 3 3 2 3 3 2 1 1 1 1 1 2 1 2 2 1 1 -0 -2 -3 -3 -4 -4 -3 -3 -3 -3 -3 -3 -2 -3 -4 -5 -5 -4 -4 -4
6 6 5 5 5 4 4 4 3 3 3 3 2 1 2 2 2 2 2 1 1 2 2 1 1 0 -1 -2 -3 -4 -4 -4 -4 -4 -3 -3 -3 -3 -4 -4 -5 -5 -4 -4
5 5 5 5 4 4 4 3 3 3 3 3 2 2 2 3 3 2 2 2 1 1 2 2 1 1 1 0 -1 -2 -4 -4 -4 -4 -4 -4 -4 -4 -4 -4 -4 -5 -5 -4
6 6 5 5 4 3 3 3 2 2 2 3 3 3 3 3 3 2 2 2 2 1 1 1 1 1 1 1 1 -0 -2 -4 -4 -4 -4 -4 -4 -4 -4 -4 -4 -4 -4 -4
6 6 5 4 3 3 2 2 2 1 1 2 3 3 3 3 3 2 3 3 2 2 1 1 1 1 1 1 1 1 -1 -2 -3 -4 -4 -4 -4 -4 -4 -4 -4 -3 -3 -3
6 5 5 4 3 2 2 1 1 1 1 1 2 3 3 3 3 3 3 3 3 2 2 2 2 1 1 1 2 2 1 -0 -2 -3 -3 -4 -4 -4 -4 -3 -3 -3 -2 -2
6 5 5 4 2 1 1 0 0 0 1 1 2 2 3 3 3 3 3 3 3 3 3 3 3 2 2 2 2 2 2 2 0 -1 -2 -2 -2 -2 -2 -2 -2 -2 -2 -2
7 6 5 3 1 0 0 -0 -0 0 0 1 1 2 2 2 2 3 3 3 3 3 2 3 3 3 2 2 2 3 3 3 2 1 -0 -1 -0 -0 -0 -1 -1 -2 -2 -1
8 7 5 3 1 -0 -0 -0 -0 -0 0 0 1 2 2 2 2 2 3 3 3 2 2 2 2 2 2 3 3 3 3 3 3 2 1 2 2 2 2 1 0 -0 -1 -1
9 8 6 3 1 0 -0 -0 -0 -0 0 1 1 2 2 2 2 2 2 2 2 3 3 3 3 2 2 2 3 3 3 3 2 2 3 3 4 4 3 3 2 1 1 1
10 9 7 4 2 1 0 0 0 0 0 1 1 1 2 2 1 1 2 2 2 3 3 3 3 3 3 3 3 3 3 3 3 3 3 3 4 4 4 4 4 3 4 4
11 10 9 6 3 2 1 1 1 0 0 1 1 1 1 1 1 1 1 2 2 3 3 3 4 4 4 4 4 4 4 4 3 3 3 3 4 4 5 5 5 5 5 5
12 11 10 9 6 4 2 2 1 1 1 1 1 1 1 1 1 1 1 2 2 3 3 3 3 4 4 4 4 4 5 5 4 4 4 4 4 4 4 4 5 5 5 4
13 12 11 10 7 5 3 2 1 1 1 1 1 1 1 1 1 1 1 1 2 2 3 3 3 3 4 4 4 4 5 5 5 4 4 4 4 4 4 4 4 4 4 3
13 12 11 9 7 5 2 1 1 1 1 1 1 1 1 1 1 1 1 1 2 2 2 2 3 3 3 3 3 4 4 5 5 4 4 4 3 3 3 3 3 3 3 4
13 12 10 8 6 4 2 1 1 1 1 1 1 1 2 2 1 1 1 2 2 2 2 2 2 2 2 3 3 4 4 5 5 4 4 3 3 3 3 3 3 4 4 5
13 11 10 8 5 3 2 1 1 1 1 1 1 2 2 2 2 1 1 2 2 2 2 2 2 2 2 3 3 4 4 4 4 4 4 3 3 3 4 4 4 5 5 5
12 11 9 7 5 3 2 1 1 1 1 1 1 1 1 2 2 2 2 2 2 2 2 2 3 3 3 3 3 3 4 4 4 4 3 4 4 4 4 4 5 5 5 5
10 10 9 7 5 4 3 2 1 1 1 1 1 1 1 1 1 2 2 2 2 2 3 3 3 3 4 4 3 3 3 3 3 3 3 3 4 4 4 4 5 5 5 5
9 9 9 8 6 4 3 2 1 1 1 1 1 1 1 1 1 1 2 2 2 2 2 3 3 4 4 4 4 3 3 3 3 3 3 3 3 4 4 4 4 4 4 4
9 10 9 8 7 5 4 3 3 2 2 2 1 1 1 1 1 1 1 1 1 1 1 2 3 3 4 4 4 3 3 3 3 2 2 3 3 3 3 4 4 4 4 4
10 10 10 9 8 7 6 5 4 4 4 4 3 2 1 1 1 1 1 1 1 1 1 1 2 3 3 3 3 3 3 3 2 2 2 2 3 3 3 4 4 4 4 4
10 10 10 9 9 9 8 8 7 6 6 5 5 4 3 2 1 1 1 1 1 1 1 1 2 2 3 2 2 2 2 2 2 2 2 3 3 3 3 3 4 4 4 5
10 10 10 9 9 9 9 9 9 8 7 7 6 5 4 2 1 1 1 1 1 1 1 1 1 2 2 2 2 2 2 2 2 2 2 3 3 3 3 3 4 4 5 5